Year,Month,Day,Hour,Minute,Value (Times are PST for temperature in C)
2021,06,30,00,00,21.00
2021,06,30,00,01,21.00
2021,06,30,00,02,21.00
2021,06,30,00,03,21.00
2021,06,30,00,04,20.90
2021,06,30,00,05,20.90
2021,06,30,00,06,20.90
2021,06,30,00,07,20.90
2021,06,30,00,08,20.80
2021,06,30,00,09,20.80
2021,06,30,00,10,20.80
2021,06,30,00,11,20.70
2021,06,30,00,12,20.70
2021,06,30,00,13,20.80
2021,06,30,00,14,20.80
2021,06,30,00,15,20.80
2021,06,30,00,16,20.80
2021,06,30,00,17,20.80
2021,06,30,00,18,20.80
2021,06,30,00,19,20.80
2021,06,30,00,20,20.80
2021,06,30,00,21,20.90
2021,06,30,00,22,20.90
2021,06,30,00,23,20.90
2021,06,30,00,24,20.90
2021,06,30,00,25,20.90
2021,06,30,00,26,20.90
2021,06,30,00,27,20.90
2021,06,30,00,28,20.90
2021,06,30,00,29,21.00
2021,06,30,00,30,21.00
2021,06,30,00,31,21.00
2021,06,30,00,32,21.10
2021,06,30,00,33,21.10
2021,06,30,00,34,21.10
2021,06,30,00,35,21.10
2021,06,30,00,36,21.10
2021,06,30,00,37,21.10
2021,06,30,00,38,21.10
2021,06,30,00,39,21.10
2021,06,30,00,40,21.20
2021,06,30,00,41,21.20
2021,06,30,00,42,21.20
2021,06,30,00,43,21.20
2021,06,30,00,44,21.30
2021,06,30,00,45,21.30
2021,06,30,00,46,21.30
2021,06,30,00,47,21.30
2021,06,30,00,48,21.30
2021,06,30,00,49,21.30
2021,06,30,00,50,21.40
2021,06,30,00,51,21.40
2021,06,30,00,52,21.40
2021,06,30,00,53,21.40
2021,06,30,00,54,21.40
2021,06,30,00,55,21.40
2021,06,30,00,56,21.40
2021,06,30,00,57,21.40
2021,06,30,00,58,21.40
2021,06,30,00,59,21.50
2021,06,30,01,00,21.50
2021,06,30,01,01,21.50
2021,06,30,01,02,21.50
2021,06,30,01,03,21.60
2021,06,30,01,04,21.60
2021,06,30,01,05,21.60
2021,06,30,01,06,21.60
2021,06,30,01,07,21.70
2021,06,30,01,08,21.70
2021,06,30,01,09,21.70
2021,06,30,01,10,21.80
2021,06,30,01,11,21.80
2021,06,30,01,12,21.80
2021,06,30,01,13,21.80
2021,06,30,01,14,21.80
2021,06,30,01,15,21.80
2021,06,30,01,16,21.80
2021,06,30,01,17,21.70
2021,06,30,01,18,21.70
2021,06,30,01,19,21.70
2021,06,30,01,20,21.80
2021,06,30,01,21,21.80
2021,06,30,01,22,21.80
2021,06,30,01,23,21.80
2021,06,30,01,24,21.70
2021,06,30,01,25,21.70
2021,06,30,01,26,21.70
2021,06,30,01,27,21.70
2021,06,30,01,28,21.70
2021,06,30,01,29,21.60
2021,06,30,01,30,21.60
2021,06,30,01,31,21.60
2021,06,30,01,32,21.60
2021,06,30,01,33,21.60
2021,06,30,01,34,21.60
2021,06,30,01,35,21.60
2021,06,30,01,36,21.60
2021,06,30,01,37,21.60
2021,06,30,01,38,21.60
2021,06,30,01,39,21.50
2021,06,30,01,40,21.50
2021,06,30,01,41,21.50
2021,06,30,01,42,21.50
2021,06,30,01,43,21.50
2021,06,30,01,44,21.50
2021,06,30,01,45,21.50
2021,06,30,01,46,21.40
2021,06,30,01,47,21.50
2021,06,30,01,48,21.50
2021,06,30,01,49,21.50
2021,06,30,01,50,21.40
2021,06,30,01,51,21.40
2021,06,30,01,52,21.40
2021,06,30,01,53,21.40
2021,06,30,01,54,21.50
2021,06,30,01,55,21.40
2021,06,30,01,56,21.40
2021,06,30,01,57,21.40
2021,06,30,01,58,21.40
2021,06,30,01,59,21.40
2021,06,30,02,00,21.40
2021,06,30,02,01,21.40
2021,06,30,02,02,21.40
2021,06,30,02,03,21.50
2021,06,30,02,04,21.50
2021,06,30,02,05,21.60
2021,06,30,02,06,21.60
2021,06,30,02,07,21.60
2021,06,30,02,08,21.60
2021,06,30,02,09,21.60
2021,06,30,02,10,21.70
2021,06,30,02,11,21.70
2021,06,30,02,12,21.60
2021,06,30,02,13,21.60
2021,06,30,02,14,21.60
2021,06,30,02,15,21.60
2021,06,30,02,16,21.60
2021,06,30,02,17,21.60
2021,06,30,02,18,21.60
2021,06,30,02,19,21.70
2021,06,30,02,20,21.70
2021,06,30,02,21,21.70
2021,06,30,02,22,21.60
2021,06,30,02,23,21.60
2021,06,30,02,24,21.50
2021,06,30,02,25,21.40
2021,06,30,02,26,21.30
2021,06,30,02,27,21.30
2021,06,30,02,28,21.20
2021,06,30,02,29,21.20
2021,06,30,02,30,21.10
2021,06,30,02,31,21.00
2021,06,30,02,32,21.00
2021,06,30,02,33,20.90
2021,06,30,02,34,20.90
2021,06,30,02,35,20.90
2021,06,30,02,36,20.80
2021,06,30,02,37,20.80
2021,06,30,02,38,20.70
2021,06,30,02,39,20.70
2021,06,30,02,40,20.60
2021,06,30,02,41,20.60
2021,06,30,02,42,20.50
2021,06,30,02,43,20.40
2021,06,30,02,44,20.30
2021,06,30,02,45,20.30
2021,06,30,02,46,20.20
2021,06,30,02,47,20.20
2021,06,30,02,48,20.10
2021,06,30,02,49,20.10
2021,06,30,02,50,20.10
2021,06,30,02,51,20.00
2021,06,30,02,52,20.00
2021,06,30,02,53,19.90
2021,06,30,02,54,19.90
2021,06,30,02,55,19.90
2021,06,30,02,56,19.80
2021,06,30,02,57,19.80
2021,06,30,02,58,19.70
2021,06,30,02,59,19.70
2021,06,30,03,00,19.70
2021,06,30,03,01,19.60
2021,06,30,03,02,19.60
2021,06,30,03,03,19.50
2021,06,30,03,04,19.50
2021,06,30,03,05,19.40
2021,06,30,03,06,19.40
2021,06,30,03,07,19.40
2021,06,30,03,08,19.30
2021,06,30,03,09,19.30
2021,06,30,03,10,19.30
2021,06,30,03,11,19.30
2021,06,30,03,12,19.20
2021,06,30,03,13,19.20
2021,06,30,03,14,19.20
2021,06,30,03,15,19.10
2021,06,30,03,16,19.10
2021,06,30,03,17,19.10
2021,06,30,03,18,19.10
2021,06,30,03,19,19.00
2021,06,30,03,20,19.00
2021,06,30,03,21,19.00
2021,06,30,03,22,19.00
2021,06,30,03,23,18.90
2021,06,30,03,24,18.90
2021,06,30,03,25,18.90
2021,06,30,03,26,18.80
2021,06,30,03,27,18.80
2021,06,30,03,28,18.80
2021,06,30,03,29,18.80
2021,06,30,03,30,18.80
2021,06,30,03,31,18.80
2021,06,30,03,32,18.80
2021,06,30,03,33,18.90
2021,06,30,03,34,19.00
2021,06,30,03,35,19.00
2021,06,30,03,36,19.10
2021,06,30,03,37,19.10
2021,06,30,03,38,19.10
2021,06,30,03,39,19.10
2021,06,30,03,40,19.10
2021,06,30,03,41,19.20
2021,06,30,03,42,19.20
2021,06,30,03,43,19.20
2021,06,30,03,44,19.20
2021,06,30,03,45,19.10
2021,06,30,03,46,19.10
2021,06,30,03,47,19.10
2021,06,30,03,48,19.10
2021,06,30,03,49,19.00
2021,06,30,03,50,19.00
2021,06,30,03,51,19.00
2021,06,30,03,52,19.00
2021,06,30,03,53,18.90
2021,06,30,03,54,18.90
2021,06,30,03,55,18.90
2021,06,30,03,56,18.90
2021,06,30,03,57,18.90
2021,06,30,03,58,18.80
2021,06,30,03,59,18.80
2021,06,30,04,00,18.80
2021,06,30,04,01,18.80
2021,06,30,04,02,18.70
2021,06,30,04,03,18.70
2021,06,30,04,04,18.70
2021,06,30,04,05,18.70
2021,06,30,04,06,18.60
2021,06,30,04,07,18.60
2021,06,30,04,08,18.60
2021,06,30,04,09,18.60
2021,06,30,04,10,18.50
2021,06,30,04,11,18.50
2021,06,30,04,12,18.50
2021,06,30,04,13,18.50
2021,06,30,04,14,18.40
2021,06,30,04,15,18.40
2021,06,30,04,16,18.40
2021,06,30,04,17,18.40
2021,06,30,04,18,18.40
2021,06,30,04,19,18.40
2021,06,30,04,20,18.40
2021,06,30,04,21,18.30
2021,06,30,04,22,18.30
2021,06,30,04,23,18.30
2021,06,30,04,24,18.30
2021,06,30,04,25,18.30
2021,06,30,04,26,18.30
2021,06,30,04,27,18.30
2021,06,30,04,28,18.30
2021,06,30,04,29,18.30
2021,06,30,04,30,18.30
2021,06,30,04,31,18.30
2021,06,30,04,32,18.30
2021,06,30,04,33,18.30
2021,06,30,04,34,18.30
2021,06,30,04,35,18.30
2021,06,30,04,36,18.30
2021,06,30,04,37,18.30
2021,06,30,04,38,18.30
2021,06,30,04,39,18.30
2021,06,30,04,40,18.30
2021,06,30,04,41,18.30
2021,06,30,04,42,18.30
2021,06,30,04,43,18.30
2021,06,30,04,44,18.40
2021,06,30,04,45,18.40
2021,06,30,04,46,18.40
2021,06,30,04,47,18.40
2021,06,30,04,48,18.50
2021,06,30,04,49,18.50
2021,06,30,04,50,18.50
2021,06,30,04,51,18.60
2021,06,30,04,52,18.60
2021,06,30,04,53,18.60
2021,06,30,04,54,18.70
2021,06,30,04,55,18.60
2021,06,30,04,56,18.60
2021,06,30,04,57,18.60
2021,06,30,04,58,18.60
2021,06,30,04,59,18.60
2021,06,30,05,00,18.60
2021,06,30,05,01,18.60
2021,06,30,05,02,18.60
2021,06,30,05,03,18.60
2021,06,30,05,04,18.50
2021,06,30,05,05,18.50
2021,06,30,05,06,18.50
2021,06,30,05,07,18.50
2021,06,30,05,08,18.50
2021,06,30,05,09,18.50
2021,06,30,05,10,18.40
2021,06,30,05,11,18.40
2021,06,30,05,12,18.50
2021,06,30,05,13,18.40
2021,06,30,05,14,18.40
2021,06,30,05,15,18.40
2021,06,30,05,16,18.40
2021,06,30,05,17,18.40
2021,06,30,05,18,18.40
2021,06,30,05,19,18.40
2021,06,30,05,20,18.40
2021,06,30,05,21,18.40
2021,06,30,05,22,18.40
2021,06,30,05,23,18.40
2021,06,30,05,24,18.40
2021,06,30,05,25,18.40
2021,06,30,05,26,18.40
2021,06,30,05,27,18.40
2021,06,30,05,28,18.30
2021,06,30,05,29,18.30
2021,06,30,05,30,18.30
2021,06,30,05,31,18.30
2021,06,30,05,32,18.30
2021,06,30,05,33,18.30
2021,06,30,05,34,18.30
2021,06,30,05,35,18.20
2021,06,30,05,36,18.20
2021,06,30,05,37,18.20
2021,06,30,05,38,18.20
2021,06,30,05,39,18.20
2021,06,30,05,40,18.20
2021,06,30,05,41,18.20
2021,06,30,05,42,18.20
2021,06,30,05,43,18.20
2021,06,30,05,44,18.20
2021,06,30,05,45,18.10
2021,06,30,05,46,18.10
2021,06,30,05,47,18.10
2021,06,30,05,48,18.10
2021,06,30,05,49,18.10
2021,06,30,05,50,18.10
2021,06,30,05,51,18.10
2021,06,30,05,52,18.00
2021,06,30,05,53,18.00
2021,06,30,05,54,18.00
2021,06,30,05,55,18.00
2021,06,30,05,56,18.00
2021,06,30,05,57,18.00
2021,06,30,05,58,18.00
2021,06,30,05,59,18.00
2021,06,30,06,00,18.10
2021,06,30,06,01,18.10
2021,06,30,06,02,18.10
2021,06,30,06,03,18.10
2021,06,30,06,04,18.10
2021,06,30,06,05,18.10
2021,06,30,06,06,18.10
2021,06,30,06,07,18.10
2021,06,30,06,08,18.20
2021,06,30,06,09,18.20
2021,06,30,06,10,18.20
2021,06,30,06,11,18.20
2021,06,30,06,12,18.20
2021,06,30,06,13,18.20
2021,06,30,06,14,18.20
2021,06,30,06,15,18.20
2021,06,30,06,16,18.20
2021,06,30,06,17,18.20
2021,06,30,06,18,18.20
2021,06,30,06,19,18.20
2021,06,30,06,20,18.20
2021,06,30,06,21,18.20
2021,06,30,06,22,18.20
2021,06,30,06,23,18.30
2021,06,30,06,24,18.30
2021,06,30,06,25,18.30
2021,06,30,06,26,18.30
2021,06,30,06,27,18.30
2021,06,30,06,28,18.30
2021,06,30,06,29,18.40
2021,06,30,06,30,18.40
2021,06,30,06,31,18.40
2021,06,30,06,32,18.40
2021,06,30,06,33,18.40
2021,06,30,06,34,18.40
2021,06,30,06,35,18.40
2021,06,30,06,36,18.40
2021,06,30,06,37,18.40
2021,06,30,06,38,18.40
2021,06,30,06,39,18.50
2021,06,30,06,40,18.40
2021,06,30,06,41,18.50
2021,06,30,06,42,18.50
2021,06,30,06,43,18.50
2021,06,30,06,44,18.50
2021,06,30,06,45,18.60
2021,06,30,06,46,18.60
2021,06,30,06,47,18.60
2021,06,30,06,48,18.60
2021,06,30,06,49,18.60
2021,06,30,06,50,18.70
2021,06,30,06,51,18.70
2021,06,30,06,52,18.70
2021,06,30,06,53,18.80
2021,06,30,06,54,18.80
2021,06,30,06,55,18.80
2021,06,30,06,56,18.80
2021,06,30,06,57,18.80
2021,06,30,06,58,18.80
2021,06,30,06,59,18.80
2021,06,30,07,00,18.80
2021,06,30,07,01,18.90
2021,06,30,07,02,18.90
2021,06,30,07,03,18.90
2021,06,30,07,04,18.90
2021,06,30,07,05,19.00
2021,06,30,07,06,19.00
2021,06,30,07,07,19.00
2021,06,30,07,08,19.10
2021,06,30,07,09,19.10
2021,06,30,07,10,19.10
2021,06,30,07,11,19.10
2021,06,30,07,12,19.20
2021,06,30,07,13,19.30
2021,06,30,07,14,19.30
2021,06,30,07,15,19.30
2021,06,30,07,16,19.30
2021,06,30,07,17,19.30
2021,06,30,07,18,19.30
2021,06,30,07,19,19.40
2021,06,30,07,20,19.30
2021,06,30,07,21,19.40
2021,06,30,07,22,19.40
2021,06,30,07,23,19.30
2021,06,30,07,24,19.40
2021,06,30,07,25,19.40
2021,06,30,07,26,19.40
2021,06,30,07,27,19.30
2021,06,30,07,28,19.40
2021,06,30,07,29,19.40
2021,06,30,07,30,19.40
2021,06,30,07,31,19.40
2021,06,30,07,32,19.50
2021,06,30,07,33,19.50
2021,06,30,07,34,19.50
2021,06,30,07,35,19.50
2021,06,30,07,36,19.50
2021,06,30,07,37,19.50
2021,06,30,07,38,19.50
2021,06,30,07,39,19.60
2021,06,30,07,40,19.60
2021,06,30,07,41,19.70
2021,06,30,07,42,19.80
2021,06,30,07,43,19.80
2021,06,30,07,44,19.80
2021,06,30,07,45,19.90
2021,06,30,07,46,19.90
2021,06,30,07,47,19.90
2021,06,30,07,48,19.90
2021,06,30,07,49,19.90
2021,06,30,07,50,19.90
2021,06,30,07,51,19.90
2021,06,30,07,52,20.00
2021,06,30,07,53,20.00
2021,06,30,07,54,20.10
2021,06,30,07,55,20.10
2021,06,30,07,56,20.10
2021,06,30,07,57,20.20
2021,06,30,07,58,20.30
2021,06,30,07,59,20.30
2021,06,30,08,00,20.40
2021,06,30,08,01,20.40
2021,06,30,08,02,20.40
2021,06,30,08,03,20.40
2021,06,30,08,04,20.40
2021,06,30,08,05,20.40
2021,06,30,08,06,20.50
2021,06,30,08,07,20.50
2021,06,30,08,08,20.60
2021,06,30,08,09,20.60
2021,06,30,08,10,20.70
2021,06,30,08,11,20.80
2021,06,30,08,12,20.80
2021,06,30,08,13,20.70
2021,06,30,08,14,20.70
2021,06,30,08,15,20.80
2021,06,30,08,16,20.70
2021,06,30,08,17,20.70
2021,06,30,08,18,20.60
2021,06,30,08,19,20.60
2021,06,30,08,20,20.70
2021,06,30,08,21,20.70
2021,06,30,08,22,20.80
2021,06,30,08,23,20.90
2021,06,30,08,24,21.00
2021,06,30,08,25,21.10
2021,06,30,08,26,21.20
2021,06,30,08,27,21.20
2021,06,30,08,28,21.20
2021,06,30,08,29,21.20
2021,06,30,08,30,21.20
2021,06,30,08,31,21.20
2021,06,30,08,32,21.20
2021,06,30,08,33,21.20
2021,06,30,08,34,21.20
2021,06,30,08,35,21.20
2021,06,30,08,36,21.20
2021,06,30,08,37,21.20
2021,06,30,08,38,21.30
2021,06,30,08,39,21.40
2021,06,30,08,40,21.50
2021,06,30,08,41,21.60
2021,06,30,08,42,21.70
2021,06,30,08,43,21.80
2021,06,30,08,44,21.70
2021,06,30,08,45,21.60
2021,06,30,08,46,21.50
2021,06,30,08,47,21.40
2021,06,30,08,48,21.50
2021,06,30,08,49,21.60
2021,06,30,08,50,21.70
2021,06,30,08,51,21.70
2021,06,30,08,52,21.70
2021,06,30,08,53,21.60
2021,06,30,08,54,21.70
2021,06,30,08,55,21.70
2021,06,30,08,56,21.80
2021,06,30,08,57,21.90
2021,06,30,08,58,21.90
2021,06,30,08,59,22.00
2021,06,30,09,00,22.00
2021,06,30,09,01,22.00
2021,06,30,09,02,22.10
2021,06,30,09,03,22.20
2021,06,30,09,04,22.30
2021,06,30,09,05,22.40
2021,06,30,09,06,22.50
2021,06,30,09,07,22.50
2021,06,30,09,08,22.60
2021,06,30,09,09,22.60
2021,06,30,09,10,22.60
2021,06,30,09,11,22.60
2021,06,30,09,12,22.60
2021,06,30,09,13,22.50
2021,06,30,09,14,22.40
2021,06,30,09,15,22.40
2021,06,30,09,16,22.50
2021,06,30,09,17,22.50
2021,06,30,09,18,22.50
2021,06,30,09,19,22.60
2021,06,30,09,20,22.60
2021,06,30,09,21,22.70
2021,06,30,09,22,22.80
2021,06,30,09,23,22.80
2021,06,30,09,24,22.90
2021,06,30,09,25,22.90
2021,06,30,09,26,23.00
2021,06,30,09,27,23.00
2021,06,30,09,28,23.10
2021,06,30,09,29,23.10
2021,06,30,09,30,23.10
2021,06,30,09,31,23.20
2021,06,30,09,32,23.20
2021,06,30,09,33,23.20
2021,06,30,09,34,23.20
2021,06,30,09,35,23.20
2021,06,30,09,36,23.20
2021,06,30,09,37,23.20
2021,06,30,09,38,23.30
2021,06,30,09,39,23.30
2021,06,30,09,40,23.40
2021,06,30,09,41,23.40
2021,06,30,09,42,23.40
2021,06,30,09,43,23.40
2021,06,30,09,44,23.50
2021,06,30,09,45,23.60
2021,06,30,09,46,23.60
2021,06,30,09,47,23.50
2021,06,30,09,48,23.30
2021,06,30,09,49,23.10
2021,06,30,09,50,23.00
2021,06,30,09,51,22.80
2021,06,30,09,52,22.60
2021,06,30,09,53,22.60
2021,06,30,09,54,22.50
2021,06,30,09,55,22.50
2021,06,30,09,56,22.50
2021,06,30,09,57,22.50
2021,06,30,09,58,22.60
2021,06,30,09,59,22.70
2021,06,30,10,00,22.80
2021,06,30,10,01,22.80
2021,06,30,10,02,22.80
2021,06,30,10,03,22.70
2021,06,30,10,04,22.80
2021,06,30,10,05,22.90
2021,06,30,10,06,23.00
2021,06,30,10,07,23.20
2021,06,30,10,08,23.20
2021,06,30,10,09,23.20
2021,06,30,10,10,23.30
2021,06,30,10,11,23.30
2021,06,30,10,12,23.20
2021,06,30,10,13,23.10
2021,06,30,10,14,23.10
2021,06,30,10,15,23.10
2021,06,30,10,16,23.00
2021,06,30,10,17,22.90
2021,06,30,10,18,23.00
2021,06,30,10,19,23.00
2021,06,30,10,20,23.10
2021,06,30,10,21,23.10
2021,06,30,10,22,23.10
2021,06,30,10,23,23.10
2021,06,30,10,24,23.20
2021,06,30,10,25,23.40
2021,06,30,10,26,23.40
2021,06,30,10,27,23.40
2021,06,30,10,28,23.30
2021,06,30,10,29,23.20
2021,06,30,10,30,23.20
2021,06,30,10,31,23.30
2021,06,30,10,32,23.30
2021,06,30,10,33,23.20
2021,06,30,10,34,23.10
2021,06,30,10,35,23.10
2021,06,30,10,36,23.10
2021,06,30,10,37,23.20
2021,06,30,10,38,23.20
2021,06,30,10,39,23.10
2021,06,30,10,40,23.20
2021,06,30,10,41,23.30
2021,06,30,10,42,23.40
2021,06,30,10,43,23.60
2021,06,30,10,44,23.70
2021,06,30,10,45,23.60
2021,06,30,10,46,23.50
2021,06,30,10,47,23.50
2021,06,30,10,48,23.40
2021,06,30,10,49,23.50
2021,06,30,10,50,23.50
2021,06,30,10,51,23.60
2021,06,30,10,52,23.70
2021,06,30,10,53,23.90
2021,06,30,10,54,24.00
2021,06,30,10,55,24.00
2021,06,30,10,56,24.00
2021,06,30,10,57,23.80
2021,06,30,10,58,23.60
2021,06,30,10,59,23.50
2021,06,30,11,00,23.60
2021,06,30,11,01,23.50
2021,06,30,11,02,23.40
2021,06,30,11,03,23.40
2021,06,30,11,04,23.40
2021,06,30,11,05,23.50
2021,06,30,11,06,23.60
2021,06,30,11,07,23.70
2021,06,30,11,08,23.80
2021,06,30,11,09,23.80
2021,06,30,11,10,23.90
2021,06,30,11,11,23.90
2021,06,30,11,12,23.80
2021,06,30,11,13,23.80
2021,06,30,11,14,23.80
2021,06,30,11,15,24.00
2021,06,30,11,16,23.90
2021,06,30,11,17,24.00
2021,06,30,11,18,24.10
2021,06,30,11,19,24.00
2021,06,30,11,20,24.00
2021,06,30,11,21,24.00
2021,06,30,11,22,24.00
2021,06,30,11,23,24.00
2021,06,30,11,24,23.80
2021,06,30,11,25,23.70
2021,06,30,11,26,23.70
2021,06,30,11,27,23.70
2021,06,30,11,28,23.80
2021,06,30,11,29,23.90
2021,06,30,11,30,24.10
2021,06,30,11,31,24.20
2021,06,30,11,32,24.20
2021,06,30,11,33,24.20
2021,06,30,11,34,24.10
2021,06,30,11,35,24.10
2021,06,30,11,36,24.10
2021,06,30,11,37,24.20
2021,06,30,11,38,24.20
2021,06,30,11,39,24.20
2021,06,30,11,40,24.20
2021,06,30,11,41,24.20
2021,06,30,11,42,24.20
2021,06,30,11,43,24.10
2021,06,30,11,44,24.00
2021,06,30,11,45,24.10
2021,06,30,11,46,24.10
2021,06,30,11,47,24.30
2021,06,30,11,48,24.30
2021,06,30,11,49,24.30
2021,06,30,11,50,24.40
2021,06,30,11,51,24.50
2021,06,30,11,52,24.50
2021,06,30,11,53,24.40
2021,06,30,11,54,24.30
2021,06,30,11,55,24.30
2021,06,30,11,56,24.30
2021,06,30,11,57,24.20
2021,06,30,11,58,24.20
2021,06,30,11,59,24.20
2021,06,30,12,00,24.20
2021,06,30,12,01,24.20
2021,06,30,12,02,24.20
2021,06,30,12,03,24.30
2021,06,30,12,04,24.30
2021,06,30,12,05,24.50
2021,06,30,12,06,24.50
2021,06,30,12,07,24.60
2021,06,30,12,08,24.70
2021,06,30,12,09,24.70
2021,06,30,12,10,24.60
2021,06,30,12,11,24.60
2021,06,30,12,12,24.60
2021,06,30,12,13,24.70
2021,06,30,12,14,24.60
2021,06,30,12,15,24.50
2021,06,30,12,16,24.50
2021,06,30,12,17,24.50
2021,06,30,12,18,24.50
2021,06,30,12,19,24.60
2021,06,30,12,20,24.60
2021,06,30,12,21,24.70
2021,06,30,12,22,24.70
2021,06,30,12,23,24.80
2021,06,30,12,24,24.90
2021,06,30,12,25,24.80
2021,06,30,12,26,24.80
2021,06,30,12,27,24.90
2021,06,30,12,28,24.80
2021,06,30,12,29,24.60
2021,06,30,12,30,24.60
2021,06,30,12,31,24.50
2021,06,30,12,32,24.40
2021,06,30,12,33,24.30
2021,06,30,12,34,24.30
2021,06,30,12,35,24.30
2021,06,30,12,36,24.40
2021,06,30,12,37,24.70
2021,06,30,12,38,24.80
2021,06,30,12,39,24.90
2021,06,30,12,40,24.90
2021,06,30,12,41,24.80
2021,06,30,12,42,24.70
2021,06,30,12,43,24.80
2021,06,30,12,44,24.90
2021,06,30,12,45,24.90
2021,06,30,12,46,24.80
2021,06,30,12,47,24.80
2021,06,30,12,48,24.80
2021,06,30,12,49,24.90
2021,06,30,12,50,24.90
2021,06,30,12,51,25.00
2021,06,30,12,52,25.10
2021,06,30,12,53,25.20
2021,06,30,12,54,25.20
2021,06,30,12,55,25.10
2021,06,30,12,56,25.20
2021,06,30,12,57,25.30
2021,06,30,12,58,25.20
2021,06,30,12,59,24.90
2021,06,30,13,00,24.70
2021,06,30,13,01,24.60
2021,06,30,13,02,24.50
2021,06,30,13,03,24.50
2021,06,30,13,04,24.50
2021,06,30,13,05,24.60
2021,06,30,13,06,24.70
2021,06,30,13,07,24.70
2021,06,30,13,08,24.50
2021,06,30,13,09,24.30
2021,06,30,13,10,24.40
2021,06,30,13,11,24.40
2021,06,30,13,12,24.50
2021,06,30,13,13,24.60
2021,06,30,13,14,24.60
2021,06,30,13,15,24.60
2021,06,30,13,16,24.60
2021,06,30,13,17,24.50
2021,06,30,13,18,24.40
2021,06,30,13,19,24.50
2021,06,30,13,20,24.80
2021,06,30,13,21,25.00
2021,06,30,13,22,25.10
2021,06,30,13,23,25.10
2021,06,30,13,24,25.10
2021,06,30,13,25,25.20
2021,06,30,13,26,25.10
2021,06,30,13,27,25.00
2021,06,30,13,28,24.90
2021,06,30,13,29,25.00
2021,06,30,13,30,25.10
2021,06,30,13,31,25.10
2021,06,30,13,32,25.00
2021,06,30,13,33,25.10
2021,06,30,13,34,24.90
2021,06,30,13,35,24.90
2021,06,30,13,36,25.00
2021,06,30,13,37,25.10
2021,06,30,13,38,25.20
2021,06,30,13,39,25.30
2021,06,30,13,40,25.30
2021,06,30,13,41,25.40
2021,06,30,13,42,25.40
2021,06,30,13,43,25.30
2021,06,30,13,44,25.20
2021,06,30,13,45,25.20
2021,06,30,13,46,25.40
2021,06,30,13,47,25.60
2021,06,30,13,48,25.60
2021,06,30,13,49,25.50
2021,06,30,13,50,25.50
2021,06,30,13,51,25.40
2021,06,30,13,52,25.20
2021,06,30,13,53,25.20
2021,06,30,13,54,25.40
2021,06,30,13,55,25.60
2021,06,30,13,56,25.70
2021,06,30,13,57,25.70
2021,06,30,13,58,25.60
2021,06,30,13,59,25.40
2021,06,30,14,00,25.50
2021,06,30,14,01,25.60
2021,06,30,14,02,25.40
2021,06,30,14,03,25.40
2021,06,30,14,04,25.20
2021,06,30,14,05,25.30
2021,06,30,14,06,25.40
2021,06,30,14,07,25.40
2021,06,30,14,08,25.30
2021,06,30,14,09,25.30
2021,06,30,14,10,25.30
2021,06,30,14,11,25.30
2021,06,30,14,12,25.40
2021,06,30,14,13,25.40
2021,06,30,14,14,25.30
2021,06,30,14,15,25.20
2021,06,30,14,16,25.20
2021,06,30,14,17,25.20
2021,06,30,14,18,25.40
2021,06,30,14,19,25.40
2021,06,30,14,20,25.50
2021,06,30,14,21,25.70
2021,06,30,14,22,25.90
2021,06,30,14,23,25.80
2021,06,30,14,24,25.70
2021,06,30,14,25,25.60
2021,06,30,14,26,25.50
2021,06,30,14,27,25.50
2021,06,30,14,28,25.60
2021,06,30,14,29,25.70
2021,06,30,14,30,25.80
2021,06,30,14,31,25.70
2021,06,30,14,32,25.70
2021,06,30,14,33,25.70
2021,06,30,14,34,25.60
2021,06,30,14,35,25.60
2021,06,30,14,36,25.60
2021,06,30,14,37,25.60
2021,06,30,14,38,25.50
2021,06,30,14,39,25.60
2021,06,30,14,40,25.40
2021,06,30,14,41,25.30
2021,06,30,14,42,25.30
2021,06,30,14,43,25.40
2021,06,30,14,44,25.40
2021,06,30,14,45,25.50
2021,06,30,14,46,25.70
2021,06,30,14,47,25.90
2021,06,30,14,48,25.90
2021,06,30,14,49,25.80
2021,06,30,14,50,25.80
2021,06,30,14,51,25.80
2021,06,30,14,52,26.00
2021,06,30,14,53,26.10
2021,06,30,14,54,26.20
2021,06,30,14,55,26.10
2021,06,30,14,56,26.00
2021,06,30,14,57,25.90
2021,06,30,14,58,25.90
2021,06,30,14,59,25.80
2021,06,30,15,00,25.90
2021,06,30,15,01,26.00
2021,06,30,15,02,26.00
2021,06,30,15,03,26.10
2021,06,30,15,04,26.20
2021,06,30,15,05,26.30
2021,06,30,15,06,26.30
2021,06,30,15,07,26.20
2021,06,30,15,08,26.10
2021,06,30,15,09,26.00
2021,06,30,15,10,26.00
2021,06,30,15,11,26.00
2021,06,30,15,12,26.10
2021,06,30,15,13,26.10
2021,06,30,15,14,26.00
2021,06,30,15,15,25.90
2021,06,30,15,16,25.90
2021,06,30,15,17,25.80
2021,06,30,15,18,25.80
2021,06,30,15,19,25.80
2021,06,30,15,20,25.80
2021,06,30,15,21,25.80
2021,06,30,15,22,25.70
2021,06,30,15,23,25.70
2021,06,30,15,24,25.70
2021,06,30,15,25,25.70
2021,06,30,15,26,25.80
2021,06,30,15,27,25.90
2021,06,30,15,28,26.00
2021,06,30,15,29,26.20
2021,06,30,15,30,26.30
2021,06,30,15,31,26.50
2021,06,30,15,32,26.60
2021,06,30,15,33,26.60
2021,06,30,15,34,26.70
2021,06,30,15,35,26.70
2021,06,30,15,36,26.60
2021,06,30,15,37,26.40
2021,06,30,15,38,26.30
2021,06,30,15,39,26.10
2021,06,30,15,40,26.00
2021,06,30,15,41,26.00
2021,06,30,15,42,26.00
2021,06,30,15,43,26.10
2021,06,30,15,44,26.00
2021,06,30,15,45,25.80
2021,06,30,15,46,25.60
2021,06,30,15,47,25.50
2021,06,30,15,48,25.50
2021,06,30,15,49,25.50
2021,06,30,15,50,25.40
2021,06,30,15,51,25.30
2021,06,30,15,52,25.30
2021,06,30,15,53,25.30
2021,06,30,15,54,25.30
2021,06,30,15,55,25.30
2021,06,30,15,56,25.20
2021,06,30,15,57,25.20
2021,06,30,15,58,25.20
2021,06,30,15,59,25.30
2021,06,30,16,00,25.30
2021,06,30,16,01,25.20
2021,06,30,16,02,25.20
2021,06,30,16,03,25.20
2021,06,30,16,04,25.30
2021,06,30,16,05,25.30
2021,06,30,16,06,25.20
2021,06,30,16,07,25.20
2021,06,30,16,08,25.20
2021,06,30,16,09,25.10
2021,06,30,16,10,25.10
2021,06,30,16,11,25.20
2021,06,30,16,12,25.20
2021,06,30,16,13,25.10
2021,06,30,16,14,25.10
2021,06,30,16,15,25.20
2021,06,30,16,16,25.20
2021,06,30,16,17,25.40
2021,06,30,16,18,25.50
2021,06,30,16,19,25.50
2021,06,30,16,20,25.50
2021,06,30,16,21,25.50
2021,06,30,16,22,25.40
2021,06,30,16,23,25.30
2021,06,30,16,24,25.40
2021,06,30,16,25,25.40
2021,06,30,16,26,25.30
2021,06,30,16,27,25.20
2021,06,30,16,28,25.20
2021,06,30,16,29,25.30
2021,06,30,16,30,25.50
2021,06,30,16,31,25.60
2021,06,30,16,32,25.80
2021,06,30,16,33,26.00
2021,06,30,16,34,26.10
2021,06,30,16,35,26.20
2021,06,30,16,36,26.20
2021,06,30,16,37,26.10
2021,06,30,16,38,25.90
2021,06,30,16,39,25.80
2021,06,30,16,40,25.60
2021,06,30,16,41,25.60
2021,06,30,16,42,25.50
2021,06,30,16,43,25.50
2021,06,30,16,44,25.60
2021,06,30,16,45,25.60
2021,06,30,16,46,25.70
2021,06,30,16,47,25.70
2021,06,30,16,48,25.60
2021,06,30,16,49,25.60
2021,06,30,16,50,25.60
2021,06,30,16,51,25.60
2021,06,30,16,52,25.50
2021,06,30,16,53,25.40
2021,06,30,16,54,25.40
2021,06,30,16,55,25.40
2021,06,30,16,56,25.40
2021,06,30,16,57,25.50
2021,06,30,16,58,25.50
2021,06,30,16,59,25.50
2021,06,30,17,00,25.40
2021,06,30,17,01,25.30
2021,06,30,17,02,25.30
2021,06,30,17,03,25.40
2021,06,30,17,04,25.30
2021,06,30,17,05,25.30
2021,06,30,17,06,25.40
2021,06,30,17,07,25.50
2021,06,30,17,08,25.50
2021,06,30,17,09,25.60
2021,06,30,17,10,25.60
2021,06,30,17,11,25.60
2021,06,30,17,12,25.70
2021,06,30,17,13,25.70
2021,06,30,17,14,25.70
2021,06,30,17,15,25.60
2021,06,30,17,16,25.40
2021,06,30,17,17,25.40
2021,06,30,17,18,25.30
2021,06,30,17,19,25.30